Location: Unspecified
(0.0000°N, 0.0000°E)
Time: 06:46:46
(UTC+00:00)

Transit 4A - All Passes

Search period start: 20 October 2021 00:00
Search period end: 30 October 2021 00:00
Orbit: 869 x 975 km, 66.8° (Epoch: 19 October)

Date Brightness Start Highest point End Pass type
(mag) Time Alt. Az. Time Alt. Az. Time Alt. Az.
20 Oct - 03:00:14 10° SSE 03:04:12 19° ESE 03:08:08 10° ENE visible
20 Oct - 04:45:07 10° SW 04:50:16 32° WNW 04:55:22 10° N visible
20 Oct - 15:55:20 10° NNW 16:01:38 90° ENE 16:08:03 10° SSE daylight
21 Oct - 03:08:17 10° S 03:13:29 32° ESE 03:18:35 10° NE visible
21 Oct - 04:55:36 10° WSW 04:59:30 19° WNW 05:03:24 10° NNW visible
21 Oct - 14:22:06 10° NE 14:24:48 13° ENE 14:27:29 10° E daylight
21 Oct - 16:04:45 10° NNW 16:10:54 55° WSW 16:17:07 10° S daylight
22 Oct - 03:16:59 10° S 03:22:44 57° ESE 03:28:23 10° NNE visible
22 Oct - 14:29:16 10° NNE 14:34:04 23° ENE 14:38:55 10° ESE daylight
22 Oct - 16:14:37 10° NW 16:20:09 32° WSW 16:25:46 10° S daylight
23 Oct - 03:26:05 10° SSW 03:31:57 82° WNW 03:37:44 10° NNE visible
23 Oct - 14:37:32 10° N 14:43:20 38° ENE 14:49:11 10° SE daylight
23 Oct - 16:25:07 10° WNW 16:29:26 19° WSW 16:33:48 10° SSW daylight
24 Oct - 01:52:41 10° SE 01:55:04 13° ESE 01:57:27 10° E night (unlit)
24 Oct - 03:35:36 10° SW 03:41:10 46° WNW 03:46:42 10° N visible
24 Oct - 14:46:20 10° N 14:52:35 65° ENE 14:58:54 10° SSE daylight
24 Oct - 16:37:47 10° WSW 16:38:46 10° WSW 16:39:45 10° WSW daylight
25 Oct - 01:59:52 10° SSE 02:04:22 23° ESE 02:08:48 10° ENE night (unlit)
25 Oct - 03:45:36 10° SW 03:50:24 27° WNW 03:55:11 10° NNW night (unlit)
25 Oct - 14:55:31 10° NNW 15:01:48 76° WSW 15:08:12 10° SSE daylight
26 Oct - 02:08:11 10° S 02:13:37 39° ESE 02:18:59 10° NE night (unlit)
26 Oct - 03:56:29 10° WSW 03:59:40 15° WNW 04:02:50 10° NW night (unlit)
26 Oct - 13:21:17 10° NE 13:24:59 16° ENE 13:28:40 10° ESE daylight
26 Oct - 15:05:05 10° NW 15:11:04 45° WSW 15:17:07 10° S daylight
27 Oct - 02:17:02 10° SSW 02:22:52 70° ESE 02:28:37 10° NNE night (unlit)
27 Oct - 13:29:00 10° NNE 13:34:15 27° ENE 13:39:32 10° SE daylight
27 Oct - 15:15:08 10° NW 15:20:20 27° WSW 15:25:35 10° SSW daylight
28 Oct - 02:26:17 10° SSW 02:32:05 68° WNW 02:37:50 10° NNE night (unlit)
28 Oct - 13:37:29 10° N 13:43:30 46° ENE 13:49:34 10° SE daylight
28 Oct - 15:26:01 10° WNW 15:29:38 16° WSW 15:33:16 10° SW daylight
29 Oct - 00:51:52 10° SSE 00:55:14 16° ESE 00:58:35 10° ENE night (unlit)
29 Oct - 02:35:58 10° SW 02:41:19 38° WNW 02:46:37 10° N night (unlit)
29 Oct - 13:46:25 10° NNW 13:52:44 78° ENE 13:59:08 10° SSE daylight
